(97219) = 1999 XS49 = 2001 DK12

Discovered at Socorro on 1999-12-07 by LINEAR.

Orbit

Orbit type: Main Belt

Note: WebGL enabled browser required.

epoch2023-09-13.0
epoch JD2460200.5
perihelion date2022-12-05.78760
perihelion JD2459919.28760
argument of perihelion (°)186.60718
ascending node (°)52.93330
inclination (°)2.34266
eccentricity0.0935317
perihelion distance (AU)2.3579081
Tisserand w.r.t. Jupiter3.4
ΔV w.r.t. Earth (km/sec)9.6
semimajor axis (AU)2.6012030
mean anomaly (°)66.06584
mean daily motion (°/day)0.23493220
aphelion distance (AU)2.844
period (years)4.2
P-vector [x]-0.50700622
P-vector [y]-0.78893408
P-vector [z]-0.34717101
Q-vector [x]0.86132507
Q-vector [y]-0.44848819
Q-vector [z]-0.23869953
absolute magnitude15.41
phase slope0.15
uncertainty0
referenceMPEC 2024-A34
observations used1247
oppositions18
arc length (days)8768
first opposition used1999
last opposition used2023
residual rms (arc-secs)0.72
perturbers coarse indicatorM-v
perturbers precise indicator003Ek
first observation date used1999-11-09.0
last observation date used2023-11-11.0
computer nameMPCLINUX
JD of orbit computation2456847.737676
perihelion JD uncertainty (days)8.7720E-05
argument of perihelion uncertainty (°)8.2209E-05
ascending node uncertainty (°)7.9085E-05
inclination uncertainty (°)4.1347E-06
eccentricity uncertainty 4.1477E-08
perihelion distance uncertainty (AU)1.0354E-07
Minimum Orbit Intersection Distances (in AU)
for orbit epoch: 2460200.5, reference: E2024-A34
Mercury1.89471
Venus1.63328
Earth1.34469
Mars0.78341
Jupiter2.14619
Saturn6.23422
Uranus15.8879
Neptune27.0178

Observations

1272 total observations over interval: 1999 11 09.39209 – 2023 11 11.095943
These data are available for download (format description).

Date (UT) J2000 RA J2000 Dec Magn Location Ref
1999 11 09.39209 04 21 29.62 +21 57 21.2 19.7   704 – Lincoln Laboratory ETS, New Mexico MPS 8921
1999 11 09.40699 04 21 28.79 +21 57 20.9 20.2   704 – Lincoln Laboratory ETS, New Mexico MPS 8921
1999 11 09.42135 04 21 28.01 +21 57 18.9 20.0   704 – Lincoln Laboratory ETS, New Mexico MPS 8921
1999 11 12.37486 04 18 49.66 +21 53 25.1 19.4   704 – Lincoln Laboratory ETS, New Mexico MPS 8921
1999 11 12.38914 04 18 48.81 +21 53 23.4 19.6   704 – Lincoln Laboratory ETS, New Mexico MPS 8921
1999 11 12.40342 04 18 48.01 +21 53 21.4 19.5   704 – Lincoln Laboratory ETS, New Mexico MPS 8921
1999 11 12.41773 04 18 47.20 +21 53 20.9 20.0   704 – Lincoln Laboratory ETS, New Mexico MPS 8921
1999 11 16.31167 04 15 07.13 +21 47 26.5 19.5   704 – Lincoln Laboratory ETS, New Mexico MPS 10030
1999 11 16.32592 04 15 06.16 +21 47 26.4 19.7   704 – Lincoln Laboratory ETS, New Mexico MPS 10030
1999 11 16.34020 04 15 05.35 +21 47 24.4 19.4   704 – Lincoln Laboratory ETS, New Mexico MPS 10030
1999 12 03.30584 03 58 06.89 +21 14 23.5 20.6 V 691 – Steward Observatory, Kitt Peak-Spacewatch MPS 19117
1999 12 03.32826 03 58 05.56 +21 14 20.6 19.4 V 691 – Steward Observatory, Kitt Peak-Spacewatch MPS 19117
1999 12 03.35067 03 58 04.21 +21 14 17.8 19.6 V 691 – Steward Observatory, Kitt Peak-Spacewatch MPS 19117
1999 12 07.22392 03 54 20.78 +21 05 58.0 18.8   704 – Lincoln Laboratory ETS, New Mexico MPS 7997
1999 12 07.26760 03 54 18.17 +21 05 52.7 20.1   704 – Lincoln Laboratory ETS, New Mexico MPS 7997
1999 12 07.28214 03 54 17.44 +21 05 50.7 19.2   704 – Lincoln Laboratory ETS, New Mexico MPS 7997
1999 12 08.26375 03 53 22.63 +21 03 45.1 19.3   704 – Lincoln Laboratory ETS, New Mexico MPS 7997
1999 12 08.27617 03 53 21.84 +21 03 43.1 19.4   704 – Lincoln Laboratory ETS, New Mexico MPS 7997
1999 12 08.30095 03 53 20.42 +21 03 40.1 19.7   704 – Lincoln Laboratory ETS, New Mexico MPS 7997
1999 12 13.27787 03 48 55.68 +20 53 15.4 19.6 R 703 – Catalina Sky Survey MPS 7997
1999 12 13.29008 03 48 55.07 +20 53 13.6 19.3 R 703 – Catalina Sky Survey MPS 7997
1999 12 13.30232 03 48 54.47 +20 53 12.2 19.5 R 703 – Catalina Sky Survey MPS 7997
1999 12 13.31443 03 48 53.82 +20 53 11.3 19.4 R 703 – Catalina Sky Survey MPS 7997
2001 02 01.39791 11 24 39.42 +07 34 32.5 19.0   704 – Lincoln Laboratory ETS, New Mexico MPS 27003
2001 02 01.41286 11 24 39.10 +07 34 37.2 19.3   704 – Lincoln Laboratory ETS, New Mexico MPS 27003
2001 02 01.42782 11 24 38.69 +07 34 39.3 19.2   704 – Lincoln Laboratory ETS, New Mexico MPS 27003
2001 02 01.44275 11 24 38.32 +07 34 42.2 19.6   704 – Lincoln Laboratory ETS, New Mexico MPS 27003
2001 02 01.45885 11 24 37.98 +07 34 45.2 19.3   704 – Lincoln Laboratory ETS, New Mexico MPS 27003
2001 02 17.31079 11 15 30.84 +08 43 02.3 18.5   704 – Lincoln Laboratory ETS, New Mexico MPS 27003
2001 02 17.32491 11 15 30.17 +08 43 06.2 18.5   704 – Lincoln Laboratory ETS, New Mexico MPS 27003
2001 02 17.33904 11 15 29.53 +08 43 10.7 18.4   704 – Lincoln Laboratory ETS, New Mexico MPS 27003
2001 02 17.35316 11 15 28.79 +08 43 15.4 18.6   704 – Lincoln Laboratory ETS, New Mexico MPS 27003
2001 02 17.36727 11 15 28.16 +08 43 19.4 18.9   704 – Lincoln Laboratory ETS, New Mexico MPS 27003
2001 02 19.30376 11 13 59.37 +08 53 18.1 18.8   704 – Lincoln Laboratory ETS, New Mexico MPS 27003
2001 02 19.31807 11 13 58.78 +08 53 22.6 18.8   704 – Lincoln Laboratory ETS, New Mexico MPS 27003
2001 02 19.33236 11 13 58.06 +08 53 26.5 18.6   704 – Lincoln Laboratory ETS, New Mexico MPS 27003
2001 02 19.34689 11 13 57.27 +08 53 31.4 18.8   704 – Lincoln Laboratory ETS, New Mexico MPS 27003
2001 02 19.36120 11 13 56.61 +08 53 35.5 18.6   704 – Lincoln Laboratory ETS, New Mexico MPS 27003
2001 02 20.35303 11 13 09.59 +08 58 47.8 18.5   704 – Lincoln Laboratory ETS, New Mexico MPS 27003
2001 02 20.36731 11 13 08.91 +08 58 52.3 18.3   704 – Lincoln Laboratory ETS, New Mexico MPS 27003
2001 02 20.36849 11 13 08.86 +08 58 51.9 18.5   704 – Lincoln Laboratory ETS, New Mexico MPS 27003
2001 02 20.38172 11 13 08.19 +08 58 56.6 18.9   704 – Lincoln Laboratory ETS, New Mexico MPS 27003
2001 02 20.38286 11 13 08.12 +08 58 57.2 18.5   704 – Lincoln Laboratory ETS, New Mexico MPS 27003
2001 02 20.39592 11 13 07.42 +08 59 01.2 18.7   704 – Lincoln Laboratory ETS, New Mexico MPS 27003
2001 02 20.39704 11 13 07.39 +08 59 01.2 18.5   704 – Lincoln Laboratory ETS, New Mexico MPS 27003
2001 02 20.41015 11 13 06.70 +08 59 05.8 19.1   704 – Lincoln Laboratory ETS, New Mexico MPS 27003
2001 02 20.41238 11 13 06.66 +08 59 05.6 19.4   704 – Lincoln Laboratory ETS, New Mexico MPS 27003
2001 03 02.28719 11 04 38.83 +09 52 10.4 17.6 R 699 – Lowell Observatory-LONEOS MPS 27717
2001 03 02.31224 11 04 37.45 +09 52 18.6   699 – Lowell Observatory-LONEOS MPS 27717
2001 03 02.33719 11 04 36.06 +09 52 26.4   699 – Lowell Observatory-LONEOS MPS 27717
2001 03 02.36218 11 04 34.66 +09 52 35.1   699 – Lowell Observatory-LONEOS MPS 27717
2001 03 03.30015 11 03 44.06 +09 57 34.3 18.5   704 – Lincoln Laboratory ETS, New Mexico MPS 27717
2001 03 03.31329 11 03 43.29 +09 57 39.0 18.2   704 – Lincoln Laboratory ETS, New Mexico MPS 27717
2001 03 03.32640 11 03 42.56 +09 57 43.2 18.3   704 – Lincoln Laboratory ETS, New Mexico MPS 27717
2001 03 03.33953 11 03 41.89 +09 57 47.6 18.4   704 – Lincoln Laboratory ETS, New Mexico MPS 27717
2001 03 03.35267 11 03 41.09 +09 57 51.3 18.6   704 – Lincoln Laboratory ETS, New Mexico MPS 27717
2001 03 04.25226 11 02 52.57 +10 02 38.1 18.5 V 691 – Steward Observatory, Kitt Peak-Spacewatch MPS 27717
2001 03 04.27360 11 02 51.40 +10 02 44.8 19.0 V 691 – Steward Observatory, Kitt Peak-Spacewatch MPS 27717
2001 03 04.29510 11 02 50.17 +10 02 51.7 18.6 V 691 – Steward Observatory, Kitt Peak-Spacewatch MPS 27717
2001 03 05.33025 11 01 53.90 +10 08 18.1 20.0 V 691 – Steward Observatory, Kitt Peak-Spacewatch MPS 27717
2001 03 05.33462 11 01 53.68 +10 08 19.6 19.0 V 691 – Steward Observatory, Kitt Peak-Spacewatch MPS 27717
2001 03 05.33923 11 01 53.38 +10 08 21.1 19.5 V 691 – Steward Observatory, Kitt Peak-Spacewatch MPS 27717
2001 03 15.26552 10 53 02.87 +10 56 41.1 18.5 R 699 – Lowell Observatory-LONEOS MPS 27717
2001 03 15.28034 10 53 02.05 +10 56 45.6   699 – Lowell Observatory-LONEOS MPS 27717
2001 03 15.29516 10 53 01.28 +10 56 49.2   699 – Lowell Observatory-LONEOS MPS 27717
2001 03 15.30998 10 53 00.47 +10 56 52.8   699 – Lowell Observatory-LONEOS MPS 27717
2001 03 19.24488 10 49 43.70 +11 13 17.5 19.1   704 – Lincoln Laboratory ETS, New Mexico MPS 27717
2001 03 19.25791 10 49 42.98 +11 13 20.2 19.1   704 – Lincoln Laboratory ETS, New Mexico MPS 27717
2001 03 19.28381 10 49 41.75 +11 13 25.5 19.5   704 – Lincoln Laboratory ETS, New Mexico MPS 27717
2001 03 19.29679 10 49 41.15 +11 13 25.7 19.2   704 – Lincoln Laboratory ETS, New Mexico MPS 27717
2001 03 21.27082 10 48 07.47 +11 20 56.4 19.6   608 – Haleakala-AMOS MPS 27717
2001 03 21.28170 10 48 06.97 +11 20 58.6 19.8   608 – Haleakala-AMOS MPS 27717
2001 03 21.29262 10 48 06.44 +11 21 00.7 20.1   608 – Haleakala-AMOS MPS 27717
2001 03 23.23343 10 46 37.87 +11 27 46.0 18.7   704 – Lincoln Laboratory ETS, New Mexico MPS 27717
2001 03 23.27096 10 46 36.06 +11 27 55.0 18.9   704 – Lincoln Laboratory ETS, New Mexico MPS 27717
2001 03 23.28391 10 46 35.44 +11 27 56.5 18.8   704 – Lincoln Laboratory ETS, New Mexico MPS 27717
2001 03 26.24011 10 44 29.06 +11 37 07.9 18.7   704 – Lincoln Laboratory ETS, New Mexico MPS 27717
2001 03 26.25294 10 44 28.54 +11 37 11.1 19.1   704 – Lincoln Laboratory ETS, New Mexico MPS 27717
2001 03 26.26527 10 44 27.97 +11 37 13.1 19.2   704 – Lincoln Laboratory ETS, New Mexico MPS 27717
2001 03 26.27763 10 44 27.45 +11 37 14.9 18.8   704 – Lincoln Laboratory ETS, New Mexico MPS 27717
2001 03 26.29010 10 44 26.90 +11 37 17.1 18.3   704 – Lincoln Laboratory ETS, New Mexico MPS 27717
2001 03 31.20132 10 41 22.03 +11 49 26.1 18.9   704 – Lincoln Laboratory ETS, New Mexico MPS 27717
2001 03 31.21611 10 41 21.47 +11 49 27.7 19.3   704 – Lincoln Laboratory ETS, New Mexico MPS 27717
2001 03 31.23058 10 41 21.00 +11 49 29.9 19.0   704 – Lincoln Laboratory ETS, New Mexico MPS 27717
